Other Public Products
Issued by NWS Charleston, SC

Current Version | Previous Version | Text Only | Print | Product List | Glossary Off
Versions: 1 2 3 4 5 6 7 8 9 10 11 12 13 14 15 16 17 18 19 20 21 22 23 24 25 26 27 28 29 30 31 32 33 34 35 36 37 38 39 40 41 42 43 44 45 46 47 48 49 50

000
FPUS82 KCHS 121527
OPUCHS

TEST...KCHS/KSAV Gateway Observations...TEST
National Weather Service Charleston SC
1000 AM EST TUE DEC 12 2017

NOTE: "fair" indicates few or no clouds below 12,000 feet with no
significant weather and/or obstructions to visibility.

SCZ050-WAZ558-NCZ071-TXZ119-213-PAZ071-DCZ001-FLZ074-172-MI076-
NYZ176-178-MAZ016-IL014-TNZ027-NJZ106-GAZ044-MD014-121600-

...Gateway Observations for Charleston International...

CITY           SKY/WX    TMP DP  RH WIND       PRES   REMARKS
Chas Airport   MOSUNNY   55  42  61 SW10      29.82F
Seattle        CLOUDY    36  26  67 NW3       30.44R
Charlotte      PTSUNNY   46  37  71 W6        29.74R
Dallas DFW     SUNNY     47  30  51 N18       30.41R
Dallas Love    SUNNY     47  30  51 N14       30.42R
Philladelphia  CLOUDY    45  33  63 SW15G22   29.59R
Wash National  CLOUDY    44  32  62 SW5       29.60F
Baltimore      CLOUDY    42  32  67 SW5       29.58F
Miami          MOSUNNY   64  36  35 NW6       30.13S
Detroit        PTSUNNY   21   8  57 NW17G24   29.85R WCI   7
Newark         CLOUDY    49  39  68 S7        29.57F
Laguardia      CLOUDY    51  40  65 S12G23    29.57F
J F K          CLOUDY    50  41  71 S18       29.60F
Boston Logan   CLOUDY    41  35  79 SE16      29.73F
Ft. Lauderdale MOSUNNY   62  42  47 W6        30.11F
Chicago O`Hare MOSUNNY   18   6  59 NW20G29   30.09R WCI   2
Chicago Midway MOSUNNY   19   7  59 NW21G26   30.10R WCI   3
Houston Bush   MOSUNNY   54  31  41 N15       30.32R
Houston Hobby  SUNNY     55  31  39 N16       30.31R
Nashville      CLOUDY    40  29  64 NW17G25   30.08R WCI  31
Atlanta        MOSUNNY   48  35  60 NW15      29.91R

$$

GAZ044-118-TXZ119-213-NCZ071-DCZ001-MDZ014-506-PAZ021-071-NJZ106-
NYZ176-178-MAZ106-OHZ011-021-055-MIZ076-KYZ091-ILZ014-INZ047-
MNZ060-ONZ431-121600-

...Gateway Observations for Savannah International...

CITY           SKY/WX    TMP DP  RH WIND       PRES   REMARKS
Savannah Arpt  MOSUNNY   55  43  63 W13       29.87F
Atlanta        MOSUNNY   48  35  60 NW15      29.91R
Charlotte      PTSUNNY   46  37  71 W6        29.74R
Dallas DFW     SUNNY     47  30  51 N18       30.41R
Houston Bush   MOSUNNY   54  31  41 N15       30.32R
Wash National  CLOUDY    44  32  62 SW5       29.60F
Wash Dulles    CLOUDY    39  32  76 CALM      29.59F
Baltimore      CLOUDY    42  32  67 SW5       29.58F
Philadelphia   CLOUDY    45  33  63 SW15G22   29.59R
Newark         CLOUDY    49  39  68 S7        29.57F
Laguardia      CLOUDY    51  40  65 S12G23    29.57F
J F K          CLOUDY    50  41  71 S18       29.60F
Boston         CLOUDY    41  35  79 SE16      29.73F
Pittsburg      LGT SNOW  31  26  82 NW24G31   29.66R WCI  17
Akron          LGT SNOW  26  20  77 NW15G24   29.74R BLWGSNOWWCI  14
Cleveland      LGT SNOW  25  17  72 NW22G32   29.80R BLWGSNOWWCI  10
Cincinnati     PTSUNNY   29  21  72 NW22G28   29.95R WCI  15
Columbus       CLOUDY    28  12  51 NW29G38   29.86R WCI  12
Detroit        PTSUNNY   21   8  57 NW17G24   29.85R WCI   7
Chicago O`Hare MOSUNNY   18   6  59 NW20G29   30.09R WCI   2
Minneapolis    CLOUDY     9   4  80 NW8       30.22F WCI  -3
Indianapolis   MOSUNNY   25  13  60 NW16G29   30.03R WCI  12
Toronto Canada FLURRIES  27  19  74 W24       29.53R WCI  12

$$




USA.gov is the U.S. government's official web portal to all federal, state and local government web resources and services.